User: anonymous   Login
Location: Lafig�re
(44.4503°N, 4.0357°E)
Time: 03:31:11
(UTC+00:00)
Language:

Cosmos 1833 Rocket - Orbit

View from above orbital plane
View from above orbital plane
View from above satellite
View from above satellite

Ground track
Ground track

The orbit data is extracted from the following two-line orbital elements,

1 17590U 87027B   21208.45602201  .00000155  00000-0  10118-3 0  9994
2 17590  71.0007 228.4905 0005306 198.6408 161.4522 14.16799773776521
Epoch (UTC): 27 July 2021 10:56:40
Eccentricity: 0.0005306
inclination: 71.0007°
perigee height: 832 km
apogee height: 840 km
right ascension of ascending node: 228.4905°
argument of perigee: 198.6408°
revolutions per day: 14.16799773
mean anomaly at epoch: 161.4522°
orbit number at epoch: 77652

The dashed part of the orbit path shows where the satellite is in the earth's shadow,  

DLR